Hourly Data Report for October 14, 2014

All times are specified in Local Standard Time (LST). Add 1 hour to adjust for Daylight Saving Time where and when it is observed.

ARVIAT A
NUNAVUT

61°05'38.000" N
94°04'18.000" W
10.40 m
2300427
71174
YEK

Download Data

Hourly Data (October 2014)
Hourly Data Report for October 14, 2014
Temp Definition
°C
Dew Point Temp Definition
°C
Rel Hum Definition
%
Wind Dir Definition
10's deg

Wind Spd Definition
km/h
Visibility Definition
km
Stn Press Definition
kPa
Hmdx Definition


Wind Chill Definition


Weather Definition


TIME
00:00 Legend Double Dagger -1.3 -2.0 95 24 13 16.1 100.94   -6 LegendNANA
01:00 Legend Double Dagger -1.5 -1.8 98 22 13 4.8 100.94   -6 Snow
02:00 Legend Double Dagger -1.3 -1.6 98 23 15 4.0 100.93   -6 Snow
03:00 Legend Double Dagger -2.2 -2.6 97 35 17 3.6 100.98   -8 Snow
04:00 Legend Double Dagger -2.8 -3.4 96 34 11 8.1 101.04   -7 Snow
05:00 Legend Double Dagger -2.7 -3.2 96 33 9 11.3 101.07   -6 Snow
06:00 Legend Double Dagger -2.8 -3.9 92 33 15 16.1 101.07   -8 Snow
07:00 Legend Double Dagger -3.4 -5.1 88 33 18 16.1 101.09   -9 Snow
08:00 Legend Double Dagger -3.8 -4.6 94 32 13 4.8 101.14   -9 Snow
09:00 Legend Double Dagger -3.9 -4.9 93 30 9 16.1 101.15   -8 Snow
10:00 Legend Double Dagger -3.7 -5.1 90 31 11 16.1 101.15   -8 Snow
11:00 Legend Double Dagger -3.6 -5.0 90 30 15 16.1 101.17   -9 Snow
12:00 Legend Double Dagger -3.2 -4.9 88 31 17 16.1 101.17   -9 Snow
13:00 Legend Double Dagger -3.0 -4.8 88 30 17 16.1 101.17   -9 LegendNANA
14:00 Legend Double Dagger -3.1 -5.1 86 30 18 16.1 101.19   -9 LegendNANA
15:00 Legend Double Dagger -2.9 -5.3 83 29 17 16.1 101.23   -8 LegendNANA
16:00 Legend Double Dagger -3.6 -5.3 88 31 24 16.1 101.25   -10 LegendNANA
17:00 Legend Double Dagger -3.1 -4.8 88 33 18 16.1 101.27   -9 LegendNANA
18:00 Legend Double Dagger -3.2 -4.9 88 34 17 16.1 101.27   -9 LegendNANA
19:00 Legend Double Dagger -4.5 -5.7 91 32 15 16.1 101.28   -10 LegendNANA
20:00 Legend Double Dagger -5.2 -6.3 92 29 13 16.1 101.33   -10 LegendNANA
21:00 Legend Double Dagger -6.9 -7.7 94 30 15 16.1 101.31   -13 LegendNANA
22:00 Legend Double Dagger -8.2 -8.9 95 29 13 16.1 101.32   -14 LegendNANA
23:00 Legend Double Dagger -7.5 -7.8 98 30 9 16.1 101.32   -12 LegendNANA

Notes on Data Quality.

Legend

  • E = Estimated
  • M = Missing
  • NA = Not Available
  • ‡ = Partner data that is not subject to review by the National Climate Archives
Date modified: